Date String (YYYY-MM-DD hh:mm:ss) UTC,Instrument flags,Ambient pressure (hPa),Sample flow (lpm),Bypass flow (lpm),Sample temperature (°C),Ambient temperature (°C),ASC tube jacket temperature (°C),LED temperature (°C),Box temperature (°C),Sample RH (%),Span deviation,Mass concentration (μg/m³),Mass concentration (μg/m³),Mass concentration (μg/m³)
DateTimeUTC,F1_M11,P_M11,Q1_M11,Q2_M11,T1_M11,T2_M11,T3_M11,T4_M11,T5_M11,U1_M11,ZSPAN_M11,X0_M11,X2_M11,X1_M11
2022-03-10 03:00:00,,0824.1,5.00,0.00,21.9,20.9,00.0,30.9,23.5,06.0,0000.0,0005.65,0003.73,0003.41
2022-03-10 03:01:00,,0824.1,5.00,0.00,21.9,20.8,00.0,30.9,23.5,06.0,0000.0,0005.59,0003.72,0003.41
2022-03-10 03:02:00,,0824.1,5.00,0.00,21.8,20.6,00.0,30.8,23.4,06.0,0000.0,0005.75,0003.72,0003.41
2022-03-10 03:03:00,,0824.0,5.01,0.00,21.8,20.8,00.0,30.8,23.3,06.0,0000.0,0005.51,0003.71,0003.42
2022-03-10 03:04:00,,0824.0,4.98,0.00,21.9,21.7,00.0,30.9,23.6,06.0,0000.0,0005.47,0003.71,0003.43
2022-03-10 03:05:00,,0823.9,5.02,0.00,22.0,22.6,00.0,30.9,23.9,06.0,0000.0,0005.43,0003.71,0003.44
2022-03-10 03:06:00,,0823.9,5.00,0.00,22.1,22.6,00.0,30.9,24.0,05.9,0000.0,0005.34,0003.70,0003.45
2022-03-10 03:07:00,,0823.9,4.99,0.00,22.1,22.2,00.0,30.9,23.9,05.9,0000.0,0005.27,0003.69,0003.46
2022-03-10 03:08:00,,0823.9,5.01,0.00,22.1,21.7,00.0,30.9,23.8,06.0,0000.0,0004.95,0003.65,0003.46
2022-03-10 03:09:00,,0824.0,5.01,0.00,22.0,21.3,00.0,30.9,23.7,06.0,0000.0,0004.81,0003.63,0003.45
2022-03-10 03:10:00,,0824.1,5.01,0.00,21.9,21.0,00.0,30.9,23.6,06.0,0000.0,0004.78,0003.62,0003.44
2022-03-10 03:11:00,,0824.1,5.00,0.00,21.9,20.8,00.0,30.9,23.5,06.0,0000.0,0004.87,0003.62,0003.42
2022-03-10 03:12:00,,0824.1,5.00,0.00,21.8,20.6,00.0,30.9,23.4,06.0,0000.0,0004.85,0003.59,0003.40
2022-03-10 03:13:00,,0824.1,5.01,0.00,21.8,20.5,00.0,30.9,23.3,06.0,0000.0,0004.69,0003.57,0003.37
2022-03-10 03:14:00,,0824.0,4.99,0.00,21.7,20.6,00.0,30.8,23.2,06.1,0000.0,0004.58,0003.53,0003.34
2022-03-10 03:15:00,,0824.0,5.00,0.00,21.8,21.5,00.0,30.9,23.4,06.0,0000.0,0004.66,0003.48,0003.29
2022-03-10 03:16:00,,0824.1,4.99,0.00,21.9,22.4,00.0,30.9,23.7,06.0,0000.0,0005.38,0003.40,0003.23
2022-03-10 03:17:00,,0824.0,5.00,0.00,22.1,22.6,00.0,30.9,23.9,06.0,0000.0,0005.24,0003.34,0003.17
2022-03-10 03:18:00,,0824.1,5.01,0.00,22.1,22.2,00.0,30.9,23.9,06.0,0000.0,0005.22,0003.30,0003.12
2022-03-10 03:19:00,,0824.1,5.00,0.00,22.0,21.8,00.0,30.9,23.8,06.0,0000.0,0005.16,0003.25,0003.03
2022-03-10 03:20:00,,0824.1,4.99,0.00,21.9,21.3,00.0,30.9,23.6,06.0,0000.0,0005.09,0003.21,0002.95
2022-03-10 03:21:00,,0824.2,4.99,0.00,21.9,21.0,00.0,30.9,23.5,06.0,0000.0,0005.05,0003.17,0002.88
2022-03-10 03:22:00,,0824.2,5.00,0.00,21.8,20.8,00.0,30.9,23.4,06.0,0000.0,0004.85,0003.10,0002.80
2022-03-10 03:23:00,,0824.2,5.01,0.00,21.8,20.6,00.0,30.9,23.3,06.0,0000.0,0004.72,0003.02,0002.74
2022-03-10 03:24:00,,0824.1,4.99,0.00,21.7,20.5,00.0,30.8,23.3,06.1,0000.0,0004.66,0002.98,0002.70
2022-03-10 03:25:00,,0824.1,5.00,0.00,21.7,20.5,00.0,30.8,23.2,06.1,0000.0,0004.68,0002.94,0002.65
2022-03-10 03:26:00,,0824.1,5.01,0.00,21.7,21.3,00.0,30.8,23.4,06.1,0000.0,0004.60,0002.91,0002.61
2022-03-10 03:27:00,,0824.1,4.99,0.00,21.9,22.2,00.0,30.9,23.7,06.0,0000.0,0003.73,0002.94,0002.62
2022-03-10 03:28:00,,0824.0,5.00,0.00,22.0,22.7,00.0,30.9,23.9,06.0,0000.0,0003.75,0002.95,0002.62
2022-03-10 03:29:00,,0824.1,5.01,0.00,22.1,22.4,00.0,30.9,23.9,05.9,0000.0,0003.85,0002.96,0002.60
2022-03-10 03:30:00,,0824.0,4.99,0.00,22.0,21.9,00.0,30.9,23.8,05.9,0000.0,0003.80,0002.94,0002.58
2022-03-10 03:31:00,,0824.0,5.00,0.00,22.0,21.6,00.0,30.9,23.7,06.0,0000.0,0003.85,0002.96,0002.58
2022-03-10 03:32:00,,0823.9,5.01,0.00,21.9,21.3,00.0,30.9,23.6,06.0,0000.0,0003.85,0002.92,0002.56
2022-03-10 03:33:00,,0823.8,5.00,0.00,21.9,21.0,00.0,30.9,23.5,06.0,0000.0,0003.88,0002.92,0002.55
2022-03-10 03:34:00,,0823.8,4.99,0.00,21.8,20.7,00.0,30.9,23.4,06.0,0000.0,0003.98,0002.97,0002.57
2022-03-10 03:35:00,,0823.9,4.99,0.00,21.8,20.6,00.0,30.9,23.3,06.0,0000.0,0004.01,0002.98,0002.56
2022-03-10 03:36:00,,0824.1,5.01,0.00,21.7,20.5,00.0,30.8,23.3,06.1,0000.0,0004.13,0003.02,0002.58
2022-03-10 03:37:00,,0824.1,5.00,0.00,21.7,21.1,00.0,30.8,23.4,06.1,0000.0,0004.19,0003.04,0002.59
2022-03-10 03:38:00,,0824.1,4.99,0.00,21.9,22.0,00.0,30.9,23.6,06.0,0000.0,0004.07,0003.02,0002.58
2022-03-10 03:39:00,,0824.2,5.01,0.00,22.0,22.7,00.0,30.9,23.9,06.0,0000.0,0004.08,0003.05,0002.60
2022-03-10 03:40:00,,0824.3,4.99,0.00,22.1,22.4,00.0,30.9,24.0,06.0,0000.0,0004.01,0003.04,0002.62
2022-03-10 03:41:00,,0824.2,5.00,0.00,22.0,22.0,00.0,30.9,23.9,06.0,0000.0,0004.17,0003.11,0002.65
2022-03-10 03:42:00,,0824.2,5.00,0.00,22.0,21.5,00.0,30.9,23.7,06.0,0000.0,0004.20,0003.11,0002.65
2022-03-10 03:43:00,,0824.2,5.00,0.00,21.9,21.2,00.0,30.9,23.5,06.0,0000.0,0004.13,0003.11,0002.66
2022-03-10 03:44:00,,0824.2,5.02,0.00,21.8,20.8,00.0,30.9,23.3,06.0,0000.0,0004.16,0003.14,0002.66
2022-03-10 03:45:00,,0824.1,4.99,0.00,21.7,20.5,00.0,30.8,23.2,06.1,0000.0,0004.27,0003.16,0002.67
2022-03-10 03:46:00,,0824.1,4.99,0.00,21.6,20.3,00.0,30.8,23.1,06.1,0000.0,0004.22,0003.15,0002.69
2022-03-10 03:47:00,,0824.1,5.02,0.00,21.6,20.3,00.0,30.8,23.1,06.1,0000.0,0004.09,0003.14,0002.69
2022-03-10 03:48:00,,0824.2,4.98,0.00,21.7,21.3,00.0,30.8,23.3,06.1,0000.0,0004.09,0003.14,0002.70
2022-03-10 03:49:00,,0824.2,5.02,0.00,21.8,22.2,00.0,30.8,23.6,06.1,0000.0,0004.10,0003.15,0002.71
2022-03-10 03:50:00,,0824.2,5.00,0.00,21.9,22.6,00.0,30.9,23.8,06.0,0000.0,0004.12,0003.13,0002.72
2022-03-10 03:51:00,,0824.1,4.98,0.00,22.0,22.1,00.0,30.9,23.8,06.0,0000.0,0004.12,0003.12,0002.71
2022-03-10 03:52:00,,0824.1,5.01,0.00,21.9,21.7,00.0,30.9,23.6,06.0,0000.0,0003.93,0003.06,0002.70
2022-03-10 03:53:00,,0824.1,5.00,0.00,21.8,21.2,00.0,30.8,23.5,06.0,0000.0,0003.88,0003.05,0002.70
2022-03-10 03:54:00,,0824.1,4.99,0.00,21.8,20.9,00.0,30.8,23.3,06.0,0000.0,0003.88,0003.04,0002.70
2022-03-10 03:55:00,,0824.1,5.00,0.00,21.7,20.5,00.0,30.8,23.2,06.1,0000.0,0003.85,0003.01,0002.69
2022-03-10 03:56:00,,0824.1,5.01,0.00,21.6,20.3,00.0,30.8,23.1,06.1,0000.0,0003.74,0002.93,0002.67
2022-03-10 03:57:00,,0824.2,5.00,0.00,21.5,20.2,00.0,30.7,22.9,06.1,0000.0,0003.77,0002.93,0002.64
2022-03-10 03:58:00,,0824.2,5.00,0.00,21.6,21.0,00.0,30.7,23.1,06.1,0000.0,0003.75,0002.93,0002.63
2022-03-10 03:59:00,,0824.2,5.00,0.00,21.7,22.0,00.0,30.8,23.4,06.1,0000.0,0003.77,0002.94,0002.64
